Regional Weather Roundup
Issued by NWS Kansas City/Pleasant Hill, MO

Home | Current Version | Previous Version | Graphics & Text | Print | Product List | Glossary Off
Versions: 1 2 3 4 5 6 7 8 9 10 11 12 13 14 15 16 17 18 19 20 21 22 23 24 25 26 27 28 29 30 31 32 33 34 35 36 37 38 39 40 41 42 43 44 45 46 47 48 49 50

000
ASUS43 KEAX 051710
RWREAX

WEATHER ROUNDUP FOR EASTERN KANSAS AND NORTHWEST MISSOURI
NATIONAL WEATHER SERVICE KANSAS CITY/PLEASANT HILL MO
1200 PM CDT SUN JUL 05 2015

KSZ040-057-103>105-MOZ028-029-037-043-051800-
...KANSAS CITY METROPOLITAN AREA...

CITY           SKY/WX    TMP DP  RH WIND       PRES   REMARKS
K.C. INTL      CLOUDY    82  72  71 S12       29.98S
K.C. DOWNTOWN  CLOUDY    86  71  60 S12       29.97S HX  91
LEES SUMMIT    PTSUNNY   82  70  66 S9        30.00S
OLATHE - IXD   CLOUDY    83  72  69 S16G23    29.99S
OLATHE - OJC   CLOUDY    81  73  76 S9        29.98S
LAWRENCE       CLOUDY    85  73  67 S12       29.97R HX  91

$$

MOZ001>008-011>017-020>025-030>033-038>040-044>046-053-054-051800-
...NORTHERN AND CENTRAL MISSOURI...

CITY           SKY/WX    TMP DP  RH WIND       PRES   REMARKS
ST. JOSEPH     CLOUDY    82  71  69 S9        29.96F
MOSBY          CLOUDY    82  70  65 S12       29.98F
HARRISONVILLE  PTSUNNY   86  73  66 SE9       30.02S HX  93
WARRENSBURG    MOSUNNY   84  70  61 SE9       30.00S
WHITEMAN AFB   MOSUNNY   85  73  67 S9        30.00S HX  91
CLINTON        MOSUNNY   84  73  70 S12       30.01S HX  91
SEDALIA        MOSUNNY   84  72  67 SW7       30.03S
WARSAW         FAIR      84  73  70 SE6       30.02F HX  91
CHILLICOTHE      N/A     85  72  65 VRB7      30.00F HX  91
KIRKSVILLE     PTSUNNY   83  69  62 S9        30.03F

$$

MOZ041-047>049-056>058-063>065-088>090-097-051800-
...EASTERN AND SOUTHERN MISSOURI...

CITY           SKY/WX    TMP DP  RH WIND       PRES   REMARKS
ST. LOUIS INTL PTSUNNY   84  66  54 W5        30.07S
SPIRIT OF STL  MOSUNNY   83  68  60 VRB5      30.06R
COLUMBIA       SUNNY     81  71  71 S8        30.04F
JEFFERSON CITY MOSUNNY   79  69  71 SE5       30.04F
MEXICO         MOSUNNY   84  75  74 SW6       30.06R HX  92
ROLLA          PTSUNNY   80  70  71 S7        30.06S
LEBANON        MOSUNNY   81  72  74 SE6       30.07S
OSAGE BEACH    MOSUNNY   81  70  69 E5        30.04F
SPRINGFIELD    MOSUNNY   81  71  71 S7        30.04S
BRANSON        MOSUNNY   81  73  78 SE8       30.08S
JOPLIN         MOSUNNY   85  74  69 SW8       30.02S HX  92
WEST PLAINS    PTSUNNY   78  69  73 S6        30.10R
MALDEN         MOSUNNY   82  72  69 E5        30.08S

$$

IAZ060-094-KSZ022-034>040-054-083-096-NEZ052-066-093-051800-
...KANSAS...SOUTHEAST NEBRASKA AND IOWA...

CITY           SKY/WX    TMP DP  RH WIND       PRES   REMARKS
TOPEKA         PTSUNNY   85  73  67 S15G22    29.95S HX  91
MANHATTAN      MOSUNNY   89  72  56 S16G24    29.91F HX  96
EMPORIA        CLOUDY    76  67  73 NE6       29.98R THUNDER
CHANUTE        PTSUNNY   85  72  65 S8        29.99F HX  91
WICHITA        MOSUNNY   90  70  51 S16       29.93F HX  95
OMAHA          CLOUDY    75  67  76 S3        29.92F
LINCOLN        CLOUDY    76  68  76 E13       29.91F HAZE
FALLS CITY     CLOUDY    84  72  67 SE15      29.93F
LAMONI         CLOUDY    83  70  64 S9        29.99S
DES MOINES     CLOUDY    81  68  64 S13       29.98S

$$




USA.gov is the U.S. government's official web portal to all federal, state and local government web resources and services.